Airfield :
LOGIN :

Register | Disclaimer

   EN    FR    IT 

 










Legend :    VFR   Marginal VFR   IFR   Intensive IFR   Very Intensive IFR
Visi :
Ceiling :
>= 8 km
>= 3000ft
5 to 8 km
1000 to 3000 ft
1500m to 5 km
500 to 1000 ft
800 to 1500m
200 to 500 ft
< 800m
< 200 ft
Symbols :   Thunderstorms  Fog  Heavy snow  Heavy precipitations  Wind > 20 kt
SIGMETs :     Misc.  Thunderstorms  Icing  Turbulence  Mountain Waves  Volcanic Ashes







- Airport Elevation : 1000 ft
- IATA code : PEV


LHPP - Pécs Pogany

CURRENT METAR :
  • 220715Z 06003KT 7000 BKN013 10/08 Q1026

EXPIRED METARs :
  • 220645Z 08003KT 6000 OVC013 09/07 Q1025
  • 220615Z 08002KT 6000 OVC016 09/07 Q1025
  • 220545Z 07002KT 6000 BKN016 09/07 Q1025
  • 220515Z 04004KT 6000 OVC016 09/07 Q1024

TAF TAF LHPP
Valid from the 22 at 06:00 until the 22 at 15:00 UTC


220515Z 2206/2215 06007KT 9999 BKN025 BKN080
TEMPO 2206/2212 6000 -RA BKN015 BKN035
No reported NOTAMs for that airfield.



MET'MAP, your aeronautical weather chart ! - Copyright ORBIFLY December 2007 - Disclaimer

ORBIFLY MET'MAP TEAM :

Programming & Development : Alexandra Zaïnal
Concept & Development : Baudouin d'Aumeries
Co-Development & Prog : Marc-Olivier Méhu
Technical & hardware support : Manuel Goepfert

Contact : metmap@orbifly.com




SOURCES & CREDITS :

   NOAA